EW8829 Weather Reports


time (UTC)temp
C
wind
direction
speed
KPH
gust
KPH
rain 1hr
cm
rain 24hr
cm
rain mn
cm
humidity
%
barometer
mb
20260903111220 17 294 0.0 1.6 0.00 0.46 0.46 99 1013.9
20260903110716 17 330 0.0 1.6 0.00 0.46 0.46 99 1013.8
20260903110212 17 280 0.0 1.6 0.00 0.46 0.46 99 1013.6
20260903105711 17 269 0.0 1.6 0.00 0.46 0.46 99 1013.7
20260903105207 17 283 0.0 1.6 0.00 0.46 0.46 99 1013.6
20260903104706 17 302 1.6 1.6 0.00 0.46 0.46 99 1013.9
20260903104202 17 309 0.0 3.2 0.00 0.46 0.46 99 1013.8
20260903103657 17 321 1.6 3.2 0.00 0.46 0.46 99 1013.9
20260903103154 17 300 1.6 3.2 0.00 0.46 0.46 99 1013.9
20260903102653 17 29 0.0 3.2 0.00 0.46 0.46 99 1013.6
20260903102148 17 332 3.2 3.2 0.00 0.46 0.46 99 1013.9
20260903101647 17 322 0.0 1.6 0.00 0.46 0.46 99 1013.7
20260903101143 18 294 1.6 1.6 0.00 0.46 0.46 99 1013.9
20260903100638 18 335 1.6 3.2 0.00 0.46 0.46 99 1013.9
20260903100137 18 299 0.0 1.6 0.00 0.46 0.46 99 1013.9
20260903095634 18 352 0.0 3.2 0.00 0.46 0.46 99 1013.9
20260903095129 18 335 1.6 3.2 0.00 0.46 0.46 99 1013.8
20260903094624 18 301 0.0 0.0 0.00 0.46 0.46 99 1014.2
20260903094119 18 309 0.0 3.2 0.00 0.46 0.46 99 1014.0
20260903093614 18 287 3.2 3.2 0.05 0.46 0.46 99 1013.8
20260903093110 18 239 3.2 3.2 0.00 0.46 0.46 99 1014.1
20260903092609 18 299 0.0 1.6 0.00 0.46 0.46 99 1014.2
20260903092104 18 329 1.6 3.2 0.00 0.46 0.46 99 1014.4
20260903091602 18 38 0.0 1.6 0.84 0.46 0.46 99 1014.0
20260903091057 18 82 0.0 3.2 1.02 0.46 0.46 99 1014.2
20260903090553 18 248 3.2 3.2 0.05 0.30 0.30 99 1014.4
20260903090051 18 45 1.6 3.2 0.00 0.28 0.28 99 1014.3
20260903085550 18 287 0.0 3.2 0.00 0.28 0.28 99 1014.0
20260903085046 18 250 3.2 3.2 0.00 0.28 0.28 99 1014.0
20260903084544 18 287 3.2 3.2 0.00 0.28 0.28 99 1013.9
20260903084039 18 318 3.2 4.8 0.00 0.28 0.28 99 1013.9
20260903083535 18 301 3.2 3.2 0.00 0.28 0.28 99 1013.8
20260903083034 18 348 3.2 3.2 0.00 0.28 0.28 99 1013.5
20260903082528 18 352 0.0 0.0 0.00 0.28 0.28 99 1013.9
20260903082024 18 64 0.0 1.6 0.00 0.28 0.28 99 1014.2
20260903081519 18 351 0.0 3.2 0.00 0.28 0.28 99 1014.2
20260903081015 18 147 0.0 1.6 0.00 0.28 0.28 99 1014.0
20260903080511 18 345 0.0 0.0 0.00 0.28 0.28 99 1014.0
20260903080008 18 309 0.0 3.2 0.00 0.28 0.28 99 1013.9
20260903075502 18 188 0.0 0.0 0.00 0.28 0.28 99 1013.9
20260903074957 18 157 0.0 1.6 0.00 0.28 0.28 99 1013.8
20260903074456 18 0 0.0 1.6 0.00 0.28 0.28 99 1014.3
20260903073952 18 283 0.0 3.2 0.00 0.28 0.28 99 1014.1
20260903073447 18 230 1.6 3.2 0.00 0.28 0.28 99 1014.2
20260903072942 18 293 0.0 0.0 0.00 0.28 0.28 99 1014.3
20260903072438 18 66 0.0 1.6 0.00 0.28 0.28 99 1014.2
20260903071935 18 68 0.0 1.6 0.00 0.28 0.28 99 1014.1
20260903071431 18 16 1.6 3.2 0.00 0.28 0.28 99 1013.9
20260903070926 18 58 1.6 3.2 0.00 0.28 0.28 99 1014.0
20260903070425 18 18 3.2 3.2 0.00 0.28 0.28 99 1013.9
20260903065920 18 14 1.6 3.2 0.00 0.28 0.28 99 1014.0
20260903065415 18 61 1.6 3.2 0.00 0.28 0.28 99 1013.8
20260903064914 18 117 3.2 4.8 0.00 0.28 0.28 99 1014.3
20260903064410 18 269 0.0 3.2 0.00 0.28 0.28 99 1014.4
20260903063906 18 50 0.0 1.6 0.00 0.28 0.28 99 1014.0
20260903063401 18 37 0.0 3.2 0.00 0.28 0.28 99 1014.0
20260903062856 18 17 3.2 3.2 0.00 0.28 0.28 99 1014.2
20260903062355 18 328 3.2 4.8 0.00 0.28 0.28 99 1014.3
20260903061852 18 322 1.6 3.2 0.00 0.28 0.28 99 1014.2
20260903061351 18 288 3.2 3.2 0.00 0.28 0.28 99 1014.4
20260903060847 18 29 0.0 3.2 0.00 0.28 0.28 99 1014.5
20260903060346 18 19 3.2 3.2 0.00 0.28 0.28 99 1014.9
20260903055844 18 23 1.6 3.2 0.00 0.28 0.28 99 1015.1
20260903055342 18 66 0.0 1.6 0.00 0.28 0.28 99 1014.9
20260903054838 18 355 1.6 3.2 0.00 0.28 0.28 99 1014.7
20260903054338 18 24 3.2 3.2 0.00 0.28 0.28 99 1014.2
20260903053834 18 86 1.6 3.2 0.00 0.28 0.28 99 1014.3
20260903053329 18 333 0.0 3.2 0.00 0.28 0.28 99 1014.4
20260903052825 18 89 0.0 3.2 0.00 0.28 0.28 99 1014.4
20260903052320 18 89 0.0 3.2 0.00 0.28 0.28 99 1014.3
20260903051816 18 269 0.0 1.6 0.00 0.28 0.28 99 1014.4
20260903051311 18 92 4.8 6.4 0.00 0.28 0.28 99 1014.4
20260903050807 18 275 1.6 3.2 0.00 0.28 0.28 99 1014.6
20260903050306 18 309 6.4 6.4 0.00 0.28 0.28 99 1014.7
20260903045800 18 346 3.2 3.2 0.05 0.28 0.28 99 1014.5
20260903045256 18 184 3.2 9.7 0.13 0.28 0.28 99 1014.7
20260903044753 18 269 0.0 4.8 0.13 0.28 0.28 99 1014.9
20260903044247 18 136 6.4 9.7 0.30 0.28 0.28 99 1014.6
20260903043744 18 285 8.0 14.5 0.36 0.25 0.25 99 1014.5
20260903043244 18 94 0.0 3.2 0.30 0.23 0.23 99 1015.0
20260903042743 18 245 0.0 8.0 0.30 0.18 0.18 99 1015.6
20260903042238 18 281 3.2 8.0 0.48 0.15 0.15 99 1015.7
20260903041734 18 172 1.6 6.4 0.53 0.13 0.13 99 1016.2
20260903041230 18 328 0.0 4.8 0.48 0.08 0.08 99 1016.3
20260903040724 18 97 3.2 3.2 0.30 0.03 0.03 99 1016.8
20260903040219 19 261 1.6 3.2 0.79 0.00 0.00 99 1016.6
20260903035715 19 13 3.2 11.3 2.39 2.29 2.29 99 1017.0
20260903035205 19 8 3.2 8.0 1.98 2.18 2.18 99 1017.2
20260903034700 19 18 6.4 9.7 0.30 1.88 1.88 99 1016.6
20260903034154 19 291 4.8 6.4 0.13 1.85 1.85 99 1015.9
20260903033649 19 280 9.7 9.7 0.13 1.83 1.83 99 1015.1
20260903033144 19 2 1.6 3.2 0.23 1.83 1.83 99 1014.3
20260903032639 19 121 3.2 3.2 0.30 1.80 1.80 99 1014.6
20260903032134 19 252 0.0 3.2 0.30 1.78 1.78 99 1015.0
20260903031630 20 72 1.6 3.2 0.36 1.75 1.75 99 1015.2
20260903031130 20 345 0.0 1.6 0.43 1.73 1.73 99 1015.3
20260903030626 19 26 0.0 4.8 0.48 1.70 1.70 99 1015.3
20260903030121 19 337 0.0 6.4 0.61 1.65 1.65 99 1015.2
20260903025616 20 54 1.6 3.2 0.61 1.60 1.60 99 1015.4
20260903025113 19 283 0.0 3.2 0.53 1.55 1.55 99 1015.7
20260903024613 19 19 3.2 3.2 0.53 1.50 1.50 99 1016.2
20260903024107 19 11 0.0 3.2 0.61 1.45 1.45 99 1016.7
20260903023603 19 103 1.6 3.2 0.61 1.42 1.42 99 1017.0
20260903023057 19 224 0.0 3.2 0.66 1.37 1.37 99 1016.8
20260903022557 19 313 3.2 4.8 0.53 1.30 1.30 99 1016.7
20260903022056 18 256 3.2 6.4 0.36 1.22 1.22 99 1016.3
20260903021550 18 136 0.0 4.8 0.36 1.19 1.19 99 1016.5
20260903021045 19 41 1.6 3.2 0.43 1.17 1.17 99 1016.6
20260903020541 19 118 4.8 9.7 3.35 1.14 1.14 99 1016.3
20260903020040 19 29 1.6 11.3 3.53 1.09 1.09 99 1016.8
20260903015536 20 318 6.4 17.7 1.07 0.69 0.69 99 1018.0
20260903015031 20 9 9.7 14.5 0.00 0.51 0.51 99 1017.6
20260903014530 20 49 3.2 3.2 0.00 0.51 0.51 99 1016.3
20260903014026 20 0 3.2 4.8 0.05 0.51 0.51 99 1016.1
20260903013525 20 285 1.6 3.2 0.13 0.51 0.51 99 1015.8
20260903013020 21 312 0.0 4.8 0.13 0.51 0.51 99 1015.6
20260903012519 21 264 0.0 1.6 0.13 0.48 0.48 99 1016.1
20260903012018 21 247 1.6 3.2 0.18 0.48 0.48 99 1016.1
20260903011513 21 223 4.8 8.0 0.18 0.46 0.46 99 1016.0
20260903011009 21 269 6.4 6.4 0.05 0.46 0.46 98 1015.7
20260903010504 21 224 1.6 9.7 0.00 0.43 0.43 98 1015.7
20260903010002 21 230 4.8 6.4 0.00 0.43 0.43 98 1015.7
20260903005456 21 225 4.8 4.8 0.00 0.43 0.43 98 1015.3
20260903004952 21 237 6.4 8.0 0.00 0.43 0.43 98 1015.2
20260903004447 21 186 3.2 6.4 0.05 0.43 0.43 98 1014.7
20260903003943 21 115 4.8 4.8 0.13 0.43 0.43 97 1014.9
20260903003442 21 132 4.8 8.0 0.05 0.43 0.43 96 1015.2
20260903002937 21 48 6.4 6.4 0.00 0.43 0.43 96 1014.9
20260903002427 21 165 6.4 6.4 0.00 0.43 0.43 96 1014.9
20260903001926 21 28 3.2 4.8 0.00 0.43 0.43 96 1015.1
20260903001426 21 321 3.2 6.4 0.00 0.43 0.43 95 1015.2
20260903000925 21 250 4.8 6.4 0.00 0.43 0.43 95 1015.4
20260903000421 21 246 4.8 9.7 0.00 0.43 0.43 96 1015.1
20260902235919 21 315 0.0 4.8 0.00 0.43 0.43 96 1014.9
20260902235414 21 263 3.2 8.0 0.00 0.43 0.43 96 1015.2
20260902234909 22 272 3.2 6.4 0.00 0.43 0.43 96 1015.4
20260902234404 22 320 3.2 4.8 0.00 0.43 0.43 96 1015.2
20260902233902 22 285 0.0 4.8 0.00 0.43 0.43 96 1015.6
20260902233357 22 269 0.0 3.2 0.00 0.43 0.43 96 1015.5
20260902232855 22 284 1.6 3.2 0.00 0.43 0.43 96 1015.3
20260902232351 22 89 0.0 0.0 0.00 0.43 0.43 96 1015.2
20260902231850 22 226 4.8 9.7 0.00 0.43 0.43 95 1015.5
20260902231345 22 37 0.0 3.2 0.00 0.43 0.43 96 1015.2
20260902230840 22 45 3.2 4.8 0.00 0.43 0.43 95 1015.3
20260902230340 22 157 3.2 4.8 0.00 0.43 0.43 95 1015.3
20260902225839 22 236 0.0 3.2 0.00 0.43 0.43 95 1015.0
20260902225335 22 129 1.6 8.0 0.00 0.43 0.43 95 1014.9
20260902224833 22 157 0.0 3.2 0.00 0.43 0.43 96 1014.7
20260902224328 22 239 3.2 6.4 0.00 0.43 0.43 95 1014.9
20260902223825 22 118 1.6 6.4 0.00 0.43 0.43 95 1014.7
20260902223320 22 156 0.0 4.8 0.00 0.43 0.43 95 1014.9
20260902222819 22 182 4.8 4.8 0.00 0.43 0.43 95 1014.6
20260902222318 22 154 3.2 8.0 0.00 0.43 0.43 96 1014.7
20260902221812 22 128 3.2 3.2 0.00 0.43 0.43 95 1014.9
20260902221312 22 153 1.6 16.1 0.00 0.43 0.43 96 1015.1
20260902220808 22 249 0.0 4.8 0.00 0.43 0.43 96 1015.1
20260902220307 22 132 4.8 9.7 0.00 0.43 0.43 96 1015.2
20260902215802 22 116 0.0 8.0 0.00 0.43 0.43 95 1015.5
20260902215257 22 59 1.6 8.0 0.00 0.43 0.43 95 1015.5
20260902214753 22 334 0.0 6.4 0.00 0.43 0.43 95 1015.3
20260902214252 22 117 0.0 6.4 0.00 0.43 0.43 97 1015.7
20260902213748 22 98 1.6 6.4 0.00 0.43 0.43 96 1015.7
20260902213248 22 184 1.6 3.2 0.00 0.43 0.43 97 1015.7
20260902212747 22 235 0.0 4.8 0.00 0.43 0.43 96 1015.8
20260902212244 22 236 0.0 3.2 0.00 0.43 0.43 96 1016.0
20260902211739 22 35 3.2 3.2 0.00 0.43 0.43 96 1015.7
20260902211235 22 97 0.0 4.8 0.00 0.43 0.43 96 1015.5
20260902210729 22 192 1.6 3.2 0.00 0.43 0.43 96 1016.0
20260902210224 22 204 4.8 11.3 0.00 0.43 0.43 95 1015.9
20260902205722 22 206 4.8 8.0 0.00 0.43 0.43 95 1015.9
20260902205218 22 240 4.8 14.5 0.00 0.43 0.43 95 1016.1
20260902204713 22 265 3.2 16.1 0.00 0.43 0.43 96 1016.2
20260902204208 22 257 6.4 6.4 0.00 0.43 0.43 96 1016.0
20260902203703 22 186 0.0 8.0 0.00 0.43 0.43 96 1015.7
20260902203158 22 207 0.0 9.7 0.00 0.43 0.43 96 1015.6
20260902202653 22 114 1.6 6.4 0.00 0.43 0.43 97 1015.6
20260902202150 22 58 1.6 3.2 0.00 0.43 0.43 96 1015.9
20260902201646 22 146 1.6 6.4 0.00 0.43 0.43 96 1015.7
20260902201144 22 132 0.0 6.4 0.00 0.43 0.43 97 1015.6
20260902200639 22 144 1.6 9.7 0.00 0.43 0.43 97 1015.9
20260902200136 22 141 6.4 9.7 0.00 0.43 0.43 97 1015.8
20260902195631 22 236 6.4 6.4 0.00 0.43 0.43 97 1016.1
20260902195130 22 214 0.0 6.4 0.00 0.43 0.43 98 1016.3
20260902194629 22 337 0.0 3.2 0.00 0.43 0.43 98 1016.6
20260902194124 22 346 3.2 4.8 0.00 0.43 0.43 97 1016.4
20260902193621 22 265 4.8 6.4 0.00 0.43 0.43 97 1016.3
20260902193120 22 238 4.8 6.4 0.00 0.43 0.43 97 1016.3
20260902192619 22 67 3.2 4.8 0.00 0.43 0.43 98 1016.5
20260902192118 22 209 1.6 3.2 0.00 0.43 0.43 98 1016.6
20260902191613 22 301 1.6 3.2 0.00 0.43 0.43 98 1016.6
20260902191107 22 227 0.0 4.8 0.00 0.43 0.43 97 1016.8
20260902190603 22 256 1.6 3.2 0.00 0.43 0.43 97 1016.7
20260902190058 22 269 0.0 3.2 0.00 0.43 0.43 97 1016.7
20260902185554 22 139 3.2 6.4 0.00 0.43 0.43 97 1016.7
20260902185050 22 146 0.0 3.2 0.00 0.43 0.43 98 1016.6
20260902184544 21 315 0.0 0.0 0.00 0.43 0.43 98 1016.6
20260902184040 21 330 3.2 3.2 0.00 0.43 0.43 99 1016.4
20260902183537 21 252 0.0 3.2 0.00 0.43 0.43 98 1016.6
20260902183033 21 335 3.2 4.8 0.00 0.43 0.43 98 1016.5
20260902182528 21 112 4.8 6.4 0.00 0.43 0.43 98 1016.5
20260902182024 21 225 3.2 6.4 0.00 0.43 0.43 98 1016.6
20260902181520 21 106 4.8 6.4 0.00 0.43 0.43 98 1016.5
20260902181014 21 252 1.6 4.8 0.00 0.43 0.43 99 1016.7
20260902180514 21 165 1.6 8.0 0.00 0.43 0.43 98 1016.8
20260902180010 21 218 3.2 6.4 0.00 0.43 0.43 97 1017.0
20260902175505 21 256 3.2 6.4 0.00 0.43 0.43 98 1017.0
20260902175001 21 303 3.2 12.9 0.00 0.43 0.43 97 1017.2
20260902174457 22 131 3.2 4.8 0.00 0.43 0.43 98 1017.2
20260902173952 21 248 4.8 6.4 0.00 0.43 0.43 98 1017.2
20260902173452 22 64 3.2 3.2 0.00 0.43 0.43 99 1017.3
20260902172947 21 159 3.2 4.8 0.00 0.43 0.43 99 1017.3
20260902172446 21 211 1.6 3.2 0.00 0.43 0.43 99 1017.4
20260902171942 21 234 3.2 6.4 0.00 0.43 0.43 99 1017.5
20260902171437 21 243 4.8 6.4 0.00 0.43 0.43 99 1017.6
20260902170933 21 97 4.8 9.7 0.00 0.43 0.43 99 1017.6
20260902170428 21 82 3.2 6.4 0.00 0.43 0.43 99 1017.6
20260902165924 21 291 1.6 4.8 0.00 0.43 0.43 99 1017.7
20260902165422 21 103 6.4 8.0 0.00 0.43 0.43 99 1017.5
20260902164918 21 115 3.2 6.4 0.00 0.43 0.43 99 1017.6
20260902164418 21 76 0.0 3.2 0.00 0.43 0.43 99 1017.5
20260902163917 21 61 3.2 3.2 0.00 0.43 0.43 99 1017.7
20260902163413 22 15 3.2 3.2 0.00 0.43 0.43 99 1017.5
20260902162910 22 88 3.2 9.7 0.00 0.43 0.43 99 1017.7
20260902162406 22 37 0.0 1.6 0.00 0.43 0.43 99 1017.8
20260902161905 22 66 1.6 3.2 0.00 0.43 0.43 99 1017.6
20260902161400 22 57 1.6 3.2 0.00 0.43 0.43 99 1017.6
20260902160857 22 4 0.0 3.2 0.00 0.43 0.43 99 1017.7
20260902160352 21 269 0.0 3.2 0.00 0.43 0.43 99 1017.2
20260902155850 21 198 0.0 4.8 0.00 0.43 0.43 99 1017.4
20260902155349 21 194 0.0 6.4 0.00 0.43 0.43 99 1017.3
20260902154844 21 215 0.0 6.4 0.05 0.43 0.43 99 1017.2
20260902154340 21 22 0.0 3.2 0.30 0.43 0.43 99 1017.1
20260902153839 21 89 0.0 3.2 0.43 0.41 0.41 99 1017.3
20260902153338 21 54 0.0 3.2 0.18 0.38 0.38 99 1017.3
20260902152834 21 62 3.2 4.8 0.13 0.33 0.33 99 1017.2
20260902152330 21 136 0.0 3.2 0.30 0.33 0.33 99 1017.3
20260902151825 21 10 0.0 1.6 0.43 0.33 0.33 99 1017.3
20260902151320 21 5 3.2 3.2 0.36 0.28 0.28 99 1017.5
20260902150815 21 133 1.6 4.8 0.30 0.25 0.25 99 1017.5
20260902150311 21 315 1.6 3.2 0.23 0.23 0.23 99 1017.5
20260902145810 21 95 1.6 3.2 0.05 0.20 0.20 99 1017.5
20260902145306 21 348 3.2 4.8 0.00 0.18 0.18 99 1017.5
20260902144801 21 171 0.0 4.8 0.05 0.18 0.18 99 1017.7
20260902144257 21 200 0.0 3.2 0.05 0.18 0.18 99 1017.5
20260902143752 21 89 0.0 1.6 0.18 0.18 0.18 99 1017.2
20260902143247 21 23 0.0 3.2 0.43 0.18 0.18 99 1017.3
20260902142742 21 6 1.6 3.2 0.43 0.15 0.15 99 1017.0
20260902142238 21 215 6.4 8.0 0.30 0.10 0.10 99 1017.2
20260902141738 21 310 4.8 8.0 0.18 0.08 0.08 99 1017.4
20260902141235 22 274 1.6 3.2 0.30 0.05 0.05 99 1017.2
20260902140734 22 194 1.6 4.8 0.23 0.05 0.05 99 1017.5
20260902140229 22 237 3.2 4.8 0.00 0.00 0.00 99 1017.3
20260902135729 22 121 0.0 3.2 0.00 0.00 0.00 99 1017.5
20260902135225 22 135 0.0 3.2 0.00 0.00 0.00 99 1017.8
20260902134724 22 163 1.6 4.8 0.00 0.00 0.00 99 1018.1
20260902134219 22 236 3.2 6.4 0.00 0.00 0.00 99 1018.0
20260902133715 21 192 1.6 8.0 0.00 0.00 0.00 99 1017.8
20260902133214 21 291 4.8 4.8 0.00 0.00 0.00 99 1018.0
20260902132709 21 269 0.0 9.7 0.00 0.00 0.00 99 1017.6
20260902132204 21 23 0.0 3.2 0.00 0.00 0.00 99 1017.3
20260902131700 21 240 4.8 14.5 0.00 0.00 0.00 99 1016.8
20260902131156 21 255 6.4 6.4 0.00 0.00 0.00 99 1017.6
20260902130651 21 293 3.2 4.8 0.00 0.00 0.00 99 1017.4
20260902130147 21 269 0.0 3.2 0.00 0.00 0.00 99 1017.0
20260902125642 21 349 0.0 4.8 0.00 0.00 0.00 99 1017.2
20260902125138 21 133 0.0 3.2 0.00 0.00 0.00 99 1017.1
20260902124634 21 251 0.0 4.8 0.00 0.00 0.00 99 1017.2
20260902124134 21 50 0.0 3.2 0.00 0.00 0.00 99 1017.3
20260902123631 20 302 0.0 3.2 0.00 0.00 0.00 99 1017.4
20260902123130 20 320 4.8 4.8 0.00 0.00 0.00 99 1017.3
20260902122625 20 342 3.2 3.2 0.00 0.00 0.00 99 1017.0
20260902122121 20 15 0.0 1.6 0.00 0.00 0.00 99 1016.9
20260902121620 20 116 0.0 1.6 0.00 0.00 0.00 99 1016.8
20260902121116 20 129 0.0 1.6 0.00 0.00 0.00 99 1016.9
20260902120612 20 71 1.6 1.6 0.00 0.00 0.00 99 1016.9
20260902120109 20 73 1.6 1.6 0.00 0.00 0.00 99 1016.7
20260902115603 20 348 1.6 3.2 0.00 0.00 0.00 99 1016.9
20260902115059 20 58 1.6 1.6 0.00 0.00 0.00 99 1016.7
20260902114554 20 10 1.6 3.2 0.00 0.00 0.00 99 1016.6
20260902114054 20 124 0.0 0.0 0.00 0.00 0.00 99 1016.4
20260902113550 20 50 0.0 1.6 0.00 0.00 0.00 99 1016.7
20260902113044 20 269 0.0 3.2 0.00 0.00 0.00 99 1016.8
20260902112540 19 299 0.0 3.2 0.00 0.00 0.00 99 1016.6
20260902112037 19 38 0.0 0.0 0.00 0.00 0.00 99 1016.7